Location: Dackenheim
(49.5215°N, 8.1854°E)
Time: 02:45:27
(UTC+00:00)

UWE-3 - Pass Details

Date: 23 March 2026
Orbit: 543 x 612 km, 97.9° (Epoch: 12 April)

Event Time Altitude Azimuth Distance (km) Brightness Sun altitude
Rises 02:59:47 0° 8° (N) 2,873 ? -23.0°
Reaches altitude 10° 03:02:03 10° 1° (N) 1,956 ? -22.7°
Enters shadow 03:05:28 39° 314° (NW) 897 ? -22.2°
